Regional Weather Roundup
Issued by NWS

Home | Current Version | Previous Version | Text Only | Print | Product List | Glossary Off
Versions: 1 2 3 4 5 6 7 8 9 10 11 12 13 14 15 16 17 18 19 20 21 22 23 24 25 26 27 28 29 30 31 32 33 34 35 36 37 38 39 40 41 42 43 44 45 46 47 48 49 50

000
ASUS43 KOAX 201710
RWRNE

WEATHER ROUNDUP FOR NEBRASKA
NATIONAL WEATHER SERVICE OMAHA NE
1100 AM CST SAT DEC 20 2014

NOTES: SATELLITE DATA IS BEING USED TO AUGMENT CLOUD COVER ABOVE
       12000 FEET.
       "FAIR" INDICATES FEW OR NO CLOUDS BELOW 12,000 FEET WITH NO
       SIGNIFICANT WEATHER AND/OR OBSTRUCTIONS TO VISIBILITY.

  * THESE STATIONS DO NOT REPORT WEATHER SUCH AS RAIN...SNOW OR FOG.

NEZ001>004-019>022-054>056-201800-
NEBRASKA PANHANDLE

CITY           SKY/WX    TMP DP  RH WIND       PRES   REMARKS
SCOTTSBLUFF    CLOUDY    27  22  81 CALM      29.99S
ALLIANCE       CLOUDY    24  20  84 W7        29.97R WCI  16
CHADRON        CLOUDY    37  26  64 SW9       29.96R WCI  30
KIMBALL        CLOUDY    40  25  55 W10       30.00R WCI  34
SIDNEY         PTSUNNY   39  26  59 W10       30.01R WCI  32
$$

NEZ057>060-069>072-079>082-201800-
SOUTHWEST NEBRASKA

CITY           SKY/WX    TMP DP  RH WIND       PRES   REMARKS
NORTH PLATTE   MOSUNNY   30  24  78 W6        30.01F WCI  24
IMPERIAL       CLOUDY    30  22  72 W6        30.02S WCI  24
LEXINGTON      SUNNY     31  27  84 CALM      30.03S
MCCOOK         PTSUNNY   33  26  75 W7        30.04S WCI  27
OGALLALA       CLOUDY    25  21  87 W10       30.02S WCI  14
$$

NEZ005>010-023>029-035>040-094-201800-
NORTH CENTRAL NEBRASKA

CITY           SKY/WX    TMP DP  RH WIND       PRES   REMARKS
VALENTINE      MOSUNNY   25  21  85 SW7       29.96S WCI  17
AINSWORTH      SUNNY     30  23  75 SW9       29.96S WCI  21
BROKEN BOW     SUNNY     32  27  81 CALM      30.00F
O`NEILL        MOSUNNY  N/A N/A N/A CALM      30.02S
THEDFORD       MOSUNNY   35  27  73 W5        29.98S WCI  31
$$

NEZ041-046>049-061>064-073>077-083>087-201800-
SOUTH CENTRAL NEBRASKA

CITY           SKY/WX    TMP DP  RH WIND       PRES   REMARKS
GRAND ISLAND   FOG       29  28  96 SE5       30.07F VSB<1/4 WCI  24
AURORA         FOG       30  30 100 CALM      30.08S VSB<1/4
HASTINGS       CLOUDY    33  28  81 SE5       30.05F HAZE    WCI  29
HEBRON         FOG       28  27  94 CALM      30.10F VSB 1/4
HOLDREGE       SUNNY     33  28  82 SW5       30.04S WCI  29
KEARNEY *      SUNNY     27  27 100 S5        30.05S WCI  21
YORK           FOG       30  30 100 CALM      30.09S VSB<1/4
$$

NEZ011>018-030>034-042>045-201800-
NORTHEAST NEBRASKA

CITY           SKY/WX    TMP DP  RH WIND       PRES   REMARKS
NORFOLK        CLOUDY    32  30  92 S9        30.07S FOG     WCI  24
ALBION         FOG       31  29  94 S9        30.07S VSB 1/4 WCI  22
BLAIR          CLOUDY    33  32  96 S7        30.11S FOG     WCI  26
COLUMBUS *     CLOUDY    32  28  86 S3        30.11R
FREMONT        CLOUDY    33  32  96 SE3       30.11F FOG
TEKAMAH        CLOUDY    34  32  92 S8        30.12F FOG     WCI  27
WAYNE          CLOUDY    32  31  95 S9        30.09S FOG     WCI  24
$$

NEZ050>053-065>068-078-088>093-201800-
SOUTHEAST NEBRASKA

CITY           SKY/WX    TMP DP  RH WIND       PRES   REMARKS
LINCOLN        CLOUDY    33  31  92 CALM      30.12F FOG
OMAHA EPPLEY   CLOUDY    33  31  92 S7        30.14S FOG     WCI  27
BEATRICE       CLOUDY    32  32  99 W6        30.11S FOG     WCI  26
FALLS CITY     CLOUDY    33  30  88 S7        30.14S WCI  27
NEBRASKA CITY  CLOUDY    33  33 100 SW5       30.12F FOG     WCI  29
PLATTSMOUTH    CLOUDY    32  31  96 S3        30.12S FOG
$$

NEZ044-045-051>053-067-201800-
OMAHA AREA

CITY           SKY/WX    TMP DP  RH WIND       PRES   REMARKS
OMAHA EPPLEY   CLOUDY    33  31  92 S7        30.14S FOG     WCI  27
BLAIR          CLOUDY    33  32  96 S7        30.11S FOG     WCI  26
FREMONT        CLOUDY    33  32  96 SE3       30.11F FOG
MILLARD        CLOUDY    33  31  94 CALM      30.13S FOG
OFFUTT AFB     CLOUDY    33  31  92 SE6       30.13S WCI  28
PLATTSMOUTH    CLOUDY    32  31  96 S3        30.12S FOG
WAHOO          CLOUDY    33  31  94 CALM      30.11S FOG
$$


USA.gov is the U.S. government's official web portal to all federal, state and local government web resources and services.